Location: Sungai Bunut
(2.6333°N, 113.7333°E)
Time: 07:36:41
(UTC+00:00)

Vanguard 3 - Pass Details

Date: 05 December 2023
Orbit: 508 x 3239 km, 33.3° (Epoch: 21 February)

Event Time Altitude Azimuth Distance (km) Brightness Sun altitude
Rises 21:49:55 0° 310° (NW) 2,593 - -7.0°
Exits shadow 21:51:22 - 312° (NW) 1,971 8.5 -6.6°
Reaches altitude 10° 21:51:58 10° 314° (NW) 1,712 8.3 -6.5°
Maximum altitude 21:55:36 64° 36° (NE) 619 6.7 -5.7°
Drops below altitude 10° 22:00:17 10° 118° (ESE) 2,196 11.3 -4.6°
Sets 22:03:15 0° 121° (ESE) 3,430 12.8 -3.9°
